Regional Weather Roundup
Issued by NWS Grand Forks, ND

Home | Current Version | Previous Version | Text Only | Print | Product List | Glossary Off
Versions: 1 2 3 4 5 6 7 8 9 10 11 12 13 14 15 16 17 18 19 20 21 22 23 24 25 26 27 28 29 30 31 32 33 34 35 36 37 38 39 40 41 42 43 44 45 46 47 48 49 50

000
ASUS43 KFGF 221931
RWRFGF
PRAIRIE TO PINES  WEATHER ROUNDUP
NATIONAL WEATHER SERVICE EASTERN NORTH DAKOTA/GRAND FORKS ND
200 PM CDT FRI AUG 22 2014

 **SATELLITE DATA USED TO AUGMENT SKY COVER AT AUTOMATED STATIONS**
 *****  WEATHER ACROSS EASTERN NORTH DAKOTA  *****

CITY           SKY/WX    TMP DP  RH WIND       PRES   REMARKS
GRAND FORKS    CLOUDY    70  64  83 N14       30.01F
GRAND FRKS AFB CLOUDY    68  68 100 N13       30.04R
GRAND FRKS NWS   N/A     63 N/A N/A N7          N/A
DEVILS LAKE    CLOUDY    66  57  72 N12       30.06S
FARGO          CLOUDY    73  67  81 N7        30.00S
WAHPETON ARPT  MOCLDY    77  64  65 NW5       29.99F
$$

 ***** WEATHER ACROSS CENTRAL AND WESTERN NORTH DAKOTA  *****

CITY           SKY/WX    TMP DP  RH WIND       PRES   REMARKS
BISMARCK       CLOUDY    74  66  76 N10       30.04F
MINOT          CLOUDY    63  60  90 N9        30.09S FOG
JAMESTOWN      PTSUNNY   75  65  70 VRB5      30.04S
MINOT AFB      CLOUDY    66  61  82 NE14      30.09S
GARRISON         N/A     64  62  93 NE7       30.08R
WILLISTON      CLOUDY    68  53  58 NE10      30.11R
DICKINSON      CLOUDY    65  61  87 NE13      30.06F
HETTINGER      CLOUDY    69  59  70 CALM      30.08F
$$

 *****  OTHER AIRPORT OBSERVATIONS IN OUR AREA  *****

CITY           SKY/WX    TMP DP  RH WIND       PRES   REMARKS
WALHALLA         N/A     70  63  78 N12       30.06R
GRAFTON AIRPOR CLOUDY    68  63  83 N12       30.03S
VALLEY CITY AR MOCLDY    73  70  88 NE7       30.03S
CANDO          CLOUDY    64  59  82 N9        30.09S
CAVALIER APRT  CLOUDY    70  63  78 N9        30.05R
GWINNER        PTCLDY    75  72  88 N7        30.02F
SHEYENNE NWR     N/A     74  68  80 N7        29.95
ROLLA          CLOUDY    64  63  94 NE14      30.12R
 ***** THE ABOVE OBSERVATIONS ARE NON NWS ARE NOT QUALITY
       CONTROLLED AND MAY MIS-REPORT RAIN FOR SNOW...
$$

  *****  WEATHER ACROSS NORTHERN MINNESOTA  *****

CITY           SKY/WX    TMP DP  RH WIND       PRES   REMARKS
FLAG ISLAND    CLOUDY    70  63  78 N3        30.01S
WARROAD        LGT RAIN  70  64  83 N6        30.01F
ROSEAU         LGT RAIN  68  63  83 NE9       30.01R
HALLOCK        PTSUNNY   70  64  83 N12       30.02R
THF RVR FALLS  CLOUDY    72  66  83 NW12      30.00S
BAUDETTE       CLOUDY    76  65  68 CALM      30.00S
WASKISH        CLOUDY    75  66  73 CALM      30.00R
CROOKSTON      CLOUDY    68  66  94 N12       30.01S FOG
$$
  *****  WEATHER ACROSS CENTRAL AND WEST MINNESOTA  *****

CITY           SKY/WX    TMP DP  RH WIND       PRES   REMARKS
FOSSTON        RAIN      72  68  88 CALM      30.00S
BEMIDJI        PTSUNNY   77  65  66 S5        29.99S
PARK RAPIDS    MOSUNNY   77  65  66 SE8       29.99S
ELBOW LAKE     FAIR      80  70  71 W5        29.99S
WADENA         SUNNY     77  68  73 SE6       29.99S
DETROIT LAKES  PTSUNNY   79  68  69 NW8       30.01R
MOORHEAD       CLOUDY    73  72  94 N8        30.01S
FERGUS FALLS   MOSUNNY   79  64  61 NW3       29.98R
MORRIS MN      MOSUNNY   81  68  65 N5        29.97F
STAPLES        MOSUNNY   75  66  73 SE3       30.00F
$$
  *****  WEATHER ELSEWHERE ACROSS MINNESOTA  *****

CITY           SKY/WX    TMP DP  RH WIND       PRES   REMARKS
DULUTH         FOG       65  62  90 S6        30.02R VSB 1
INTRNTL FALLS  CLOUDY    74  64  71 MISG      30.00S
ELY            PTSUNNY   70  64  83 CALM      30.02S
CLOQUET        CLOUDY    66  63  88 SE3       30.02S
WHEATON        PTSUNNY   77  68  73 NW10      30.00S
BRAINERD       CLOUDY    72  65  78 NE3       30.00F
HIBBING        CLOUDY    74  65  73 E5        30.01R
ALEXANDRIA     MOSUNNY   80  66  62 CALM      30.00F
SAINT CLOUD    CLOUDY    78  68  71 N3        29.98S
MINNEAPOLIS    CLOUDY    76  68  76 CALM      29.98S
$$

  *****  WEATHER ACROSS SOUTH DAKOTA  *****

CITY           SKY/WX    TMP DP  RH WIND       PRES   REMARKS
SIOUX FALLS    PTSUNNY   86  70  58 E9        29.98S HX  90
BROOKINGS      NOT AVBL
WATERTOWN      PTSUNNY   79  68  69 E7        30.00S
HURON          MOSUNNY   85  65  51 E9        29.97S
SISSETON         N/A     77  70  79 NE5       29.99R
ABERDEEN       CLOUDY    73  67  81 NE9       30.01S
MITCHELL       MOSUNNY   87  65  47 CALM      29.97F
PIERRE         CLOUDY    77  67  71 E9        29.99R
MOBRIDGE       CLOUDY    72  63  73 NE5       30.02F
RAPID CITY     PTSUNNY   74  62  66 E7        30.05F
$$

  *****  SOME WEATHER IN NEARBY STATES *****

CITY           SKY/WX    TMP DP  RH WIND       PRES   REMARKS
GLASGOW MT     LGT RAIN  61  58  90 E16       30.11S FOG
GREAT FALLS MT CLOUDY    55  54  94 N10       30.12S
CHEYENNE WY    SUNNY    N/A N/A N/A S7        30.17F
SCOTTSBLUFF NE CLOUDY    74  53  48 E5        30.07F
OMAHA NE       PTSUNNY   91  75  59 N7        29.90F HX 101
DES MOINES IA  CLOUDY    86  76  71 CALM      29.92S HX  96
DAVENPORT IA   PTSUNNY   83  74  74 SW14G22   29.95F
CHICAGO IL     PTSUNNY   84  68  58 SW7       29.93F
EAU CLAIRE WI  PTSUNNY   83  70  64 W8        29.94S
LA CROSSE WI   CLOUDY    80  73  79 CALM      29.94S
$$

  *****  SOME NATIONAL WEATHER *****

CITY           SKY/WX    TMP DP  RH WIND       PRES   REMARKS
LA GUARDIA NY  PTSUNNY   76  64  66 NE14      30.01F
RALEIGH NC     PTSUNNY   90  70  51 W7        30.00F HX  95
ATLANTA GA     MOSUNNY   92  71  50 NW10      30.08F HX  98
NEW ORLEANS LA MOSUNNY   90  75  61 NE9       30.09F HX 100
OKLAHOMA CITY  MOSUNNY   97  66  36 S18G25    29.96F HX 100
ALBUQUERQUE NM LGT RAIN  64  58  80 N6        30.22F
SALT LAKE CITY CLOUDY    79  45  29 S13G18    29.96F
LOS ANGELES CA MOSUNNY   75  63  64 W9        29.98F
BOISE ID       SUNNY     72  42  34 SW7       29.92F
SEATTLE WA     MOSUNNY   69  52  54 N9        30.08S
$$

*** WEATHER ACROSS MANITOBA...SASKATCHEWAN AND ONTARIO ***
                ***ONTARIO***

CITY           SKY/WX    TMP DP  RH WIND       PRES   REMARKS
GERALDTON      PTSUNNY   77  61  57 CALM      30.04S
THUNDER BAY    CLOUDY    68  63  83 E8        30.03S
SIOUX LOOKOUT  CLOUDY    72  63  73 VRB2      30.02S
TORONTO        PTSUNNY   73  64  73 SE8       30.00S
BIG TROUT LK   PTSUNNY   73  61  64 N10       30.01R
PICKLE LAKE    CLOUDY    73  57  56 S6        30.03R
DRYDEN         CLOUDY    72  61  68 NE2       30.03S
KENORA         CLOUDY    72  63  73 CALM      30.04R
$$
                *** MANITOBA***

CITY           SKY/WX    TMP DP  RH WIND       PRES   REMARKS
BRANDON        CLOUDY    66  57  72 N16       30.11S
DAUPHIN        CLOUDY    61  57  88 N16G22    30.15S
ISLAND LAKE    LGT RAIN  52  52 100 NE6       30.15  FOG
PILOT MOUND      N/A     63  57  82 N12G21      N/A
THE PAS        MOSUNNY   64  52  63 N9G17     30.23R
THOMPSON       PTSUNNY   57  48  72 NE10G18   30.25R
WINNIPEG       CLOUDY    66  59  77 N9        30.05S
LYNN LAKE      CLOUDY    54  46  76 MISG      30.32R
CHURCHILL      PTSUNNY   50  43  76 N23       30.30R
GILLAM         CLOUDY    52  50  93 N20       30.24R
$$
                ***SASKATCHEWAN***

CITY           SKY/WX    TMP DP  RH WIND       PRES   REMARKS
ESTEVAN        CLOUDY    66  52  59 NE7       30.14S
KINDERSLEY     PTSUNNY   59  45  58 NE9G20    30.27S
LLOYDMINSTER   CLOUDY    55  41  58 E7        30.33R
PRINCE ALBERT  PTSUNNY   66  50  55 NE5       30.25S
REGINA         PTSUNNY   64  54  68 N10G18    30.18S
YORKTON        LGT RAIN  59  54  82 NE13G18   30.20R
N. BATTLEFORD  CLOUDY    59  43  55 N13G20    30.31S
LA RONGE       PTSUNNY   63  46  55 N7        30.29S
SASKATOON      PTSUNNY   63  43  48 N12       30.28R
SWIFT CURRENT  CLOUDY    55  54  94 NE14G20   30.21S
$$
NOTE: THESE ARE AUTOMATED STATIONS WITH LIMITED QUALITY CONTROL
      "FAIR" INDICATES FEW OR NO CLOUDS BELOW 12,000 FEET WITH NO
      SIGNIFICANT WEATHER AND/OR OBSTRUCTIONS TO VISIBILITY.
      SKY/WX - SKY CONDITION AND SIGNIFICANT WEATHER.
      TMP - AIR TEMPERATURE.    DP   - DEWPOINT TEMPERATURE.
      RH  - RELATIVE HUMIDITY.  PRES - PRESSURE.
      HX  - HEAT INDEX.         WCI  - WIND CHILL INDEX.
$



USA.gov is the U.S. government's official web portal to all federal, state and local government web resources and services.